星链-31607 (STARLINK-31607 )

导读 | 星芒AI

STARLINK-31607 是 SpaceX Starlink 卫星互联网项目中的一颗低轨道卫星。该卫星属于 Starlink 群体部署的一部分,旨在为全球用户提供高速、低延迟的宽带互联网服务。它运行在约 550 公里的轨道高度,采用先进的通信技术,支持全球范围内的网络连接。该卫星的发射有助于扩大 Starlink 在偏远和网络基础设施薄弱地区的覆盖能力,提升全球互联网接入的公平性与效率。

基本信息
目录编号:
59394
目录名称:
STARLINK-31607
国际标识:
2024-062W
轨道中心:
EARTH
卫星名称:
星链-31607
卫星全名:
星链-31607 (STARLINK-31607 )
卫星状态:
在轨 (已飞行627 天)
发射日期:
2024-04-02 UTC
国别 :
美国 (US)
星等 :
--
轨道信息
数据来源 国际轨道数据
星历时间: 2025-12-19T08:50:13+0800
23小时前
查看轨道信息
半长轴: 6853.404km
偏心率: 0.0001361
轨道倾角: 53.161°
近地点辐角 99.260°
升交点赤经 270.235°
平近点角 260.855°
近地点: 474.334km
远地点: 476.2km
周期: 94.106分钟
每日圈数: 15.301829
详细信息
固有亮度:
5
最大亮度:
0.3
卫星平台:
Starlink v2.0 mini
覆盖范围:
全球
运营商:
太空探索技术公司
运营商所在国:
美国
制造商(研发单位):
太空探索技术公司
制造商所在国:
美国
使用方式:
暂无
卫星简介
星链(Starlink)计划是由太空探索技术公司(SpaceX)提出的一个巨型低轨卫星互联网星座项目,计划在2019年至2024年间在太空搭建由约1.2万颗卫星组成的“星链”网络,其中1584颗将部署在地球上空550千米处的近地轨道,并从2020年开始工作。该卫星仍在工作。
2D轨道图
3D轨道图
轨道高度分析图
轨道倾角分析图
轨道综合分析图
查看轨道综合分析图